Vertical_Velocity
-10 -4 0 0 -3 -6 -6 4 2 -4 -8 3 4 1 -1 2 2 1 2 0 -0 -1 -1 -1 -1 -1 -1 -1 -2 -2 -3 -3 -2 -1 0 1 1 1 1 1 0 -0 -0 0 0 0 0 -0 -0 -1 -1 -2 -2 -3 -3 -3 -2 -2 -1 -1 0 1 1 1 2 2 2 2 1 1 0 -0 -0 -0 0 1 1 2 3 4 5 6 7 6 6 5
-5 -4 -2 0 -2 -6 -9 3 4 -1 -7 -1 1 2 -0 -0 0 2 2 1 0 -0 -1 -1 -1 -1 -2 -1 -1 -1 -2 -2 -2 -1 -1 -0 0 0 0 0 0 0 0 0 1 1 1 0 0 -0 -0 -1 -1 -2 -2 -2 -2 -2 -2 -1 -1 -0 0 0 1 1 2 2 2 1 1 0 -0 -0 -0 0 0 1 2 3 5 6 6 6 5 5
-3 -6 -2 2 -1 -5 -6 -0 2 1 -3 -3 -1 0 0 -1 -0 1 2 1 1 1 -0 -1 -1 -2 -2 -1 -1 -0 -1 -1 -1 -1 -1 -1 -0 0 0 1 1 1 0 0 0 0 0 0 0 0 0 -0 -1 -1 -2 -2 -2 -2 -2 -2 -1 -1 -1 -1 -0 0 1 1 1 1 1 1 0 0 -0 -0 0 1 2 3 4 4 5 5 5 5
-3 -7 -4 0 -1 -3 -2 -1 -1 -1 -0 -2 -2 -1 0 -1 -1 0 2 1 1 1 0 -1 -2 -2 -2 -1 -0 0 0 -0 -1 -1 -0 -0 0 0 1 1 1 0 0 -0 -0 -1 -0 -0 -0 0 0 -0 -0 -1 -1 -2 -2 -2 -2 -2 -2 -2 -2 -2 -1 -1 -1 -0 0 0 1 1 1 0 -0 -0 0 1 1 2 3 3 4 4 5 5
-0 -4 -5 -2 -3 -3 0 0 -1 -2 -1 -1 -1 -1 -1 -1 -1 -1 1 1 1 0 0 -1 -2 -2 -2 -1 -0 0 0 -1 -1 -1 -0 -0 0 0 0 0 -0 -1 -1 -1 -1 -2 -1 -1 -1 -1 -0 -0 -0 -1 -1 -1 -1 -2 -2 -2 -2 -2 -2 -2 -2 -2 -2 -1 -1 -0 0 1 1 0 -0 -0 0 0 1 1 2 2 3 3 4 5
1 -1 -3 -2 -3 -3 -1 -0 -0 -1 -2 -2 -1 -1 -1 -1 -1 -1 0 0 0 -0 -0 -1 -1 -1 -1 -1 0 0 -0 -1 -1 -1 -1 -1 -1 -0 -0 -1 -1 -1 -2 -2 -2 -2 -2 -2 -1 -1 -1 -1 -1 -1 -1 -1 -1 -1 -1 -1 -1 -1 -2 -2 -2 -2 -2 -2 -1 -1 -0 0 1 0 0 -0 0 0 0 1 2 2 2 2 3 4
-0 1 0 -2 -3 -2 -1 -1 0 0 -2 -3 -2 -1 0 -0 -0 -0 -0 -0 -0 -0 -1 -1 -1 -0 0 0 0 -0 -1 -1 -1 -1 -1 -1 -1 -1 -1 -2 -2 -2 -2 -1 -1 -2 -2 -2 -2 -2 -1 -1 -1 -0 0 0 0 1 1 1 1 0 -0 -1 -1 -1 -1 -2 -1 -1 -0 0 0 0 0 0 0 0 0 1 1 2 2 2 2 3
-3 -0 2 -1 -3 -3 -2 -0 1 1 -2 -4 -3 -2 -0 0 1 0 -0 -0 0 0 -1 -1 -0 1 2 1 0 -1 -1 -1 -1 -1 -1 -1 -2 -2 -2 -2 -2 -2 -1 -1 -1 -1 -1 -1 -1 -0 0 1 1 2 2 2 2 2 2 2 2 1 1 0 -0 -1 -1 -1 -1 -1 -1 -0 0 0 1 0 0 0 0 1 1 1 2 2 2 2
-3 -2 1 1 -1 -3 -3 0 2 2 -1 -4 -4 -3 -1 -0 0 1 1 2 2 2 0 -0 0 2 3 2 1 -1 -2 -2 -1 -1 -1 -2 -2 -2 -2 -2 -2 -1 -1 -0 -0 0 0 1 1 2 3 3 3 3 3 3 2 2 1 1 0 -0 -0 -0 -0 -0 -0 -1 -1 -1 -1 -0 0 0 1 1 1 0 0 0 1 1 1 1 1 2
-3 -2 -1 -0 0 -1 -2 -0 3 4 1 -3 -4 -3 -2 -1 -1 -0 1 3 4 3 1 0 1 2 3 4 3 1 -1 -2 -1 -1 -1 -2 -2 -2 -2 -2 -1 -1 -0 -0 0 0 1 2 2 3 3 3 2 2 2 1 1 0 -0 -1 -1 -1 -1 -1 -1 -0 -0 -0 -0 -0 -1 -0 -0 0 0 1 1 1 0 0 0 1 1 1 1 2
-4 -3 -2 -2 -1 0 -0 0 2 3 2 -1 -3 -3 -1 -1 -1 -2 -1 2 4 4 2 -0 -1 1 3 4 4 3 1 -0 -1 -1 -2 -2 -2 -2 -2 -2 -1 -1 -0 -0 0 0 1 1 1 0 0 0 -0 -0 -0 -1 -1 -1 -1 -1 -1 -1 -1 -1 -0 0 0 0 0 -0 -0 -0 -0 -0 0 1 1 1 0 -0 -0 0 0 1 1 2
-4 -3 -3 -3 -2 -0 1 1 1 2 2 0 -1 -1 0 1 -0 -2 -3 -2 1 3 2 -1 -1 0 3 4 4 3 2 1 0 -1 -1 -1 -1 -2 -3 -3 -2 -2 -1 -1 -1 0 0 -0 -1 -2 -1 -1 -1 -1 -1 -2 -2 -2 -1 -1 -1 -0 0 0 1 1 1 1 0 -0 -1 -1 -1 -0 0 1 1 1 0 -0 -0 -0 0 1 1 2
-2 -2 -3 -3 -3 -1 -0 -0 0 0 1 0 0 0 1 1 1 -2 -4 -4 -1 1 1 -1 -0 2 3 4 3 2 1 0 0 1 2 2 2 -0 -2 -3 -4 -3 -3 -3 -2 -1 -1 -2 -2 -2 -1 -1 -1 -1 -1 -2 -2 -2 -2 -1 -1 -0 0 1 1 1 1 1 0 -0 -1 -1 -1 -0 0 1 1 1 0 -0 -0 -0 0 1 2 2
1 1 -1 -2 -2 -1 -1 -2 -2 -2 -1 0 0 0 0 1 0 -2 -5 -4 -3 -1 -0 -0 2 4 5 4 2 0 -1 -1 -1 1 4 5 4 2 -2 -3 -4 -4 -4 -3 -3 -2 -2 -2 -2 -2 -1 -1 -1 -1 -2 -2 -2 -2 -2 -2 -1 -1 -0 0 1 1 1 1 0 -0 -1 -1 -1 -0 0 0 1 1 0 0 -0 0 1 1 2 2
2 1 -0 -1 -1 -0 0 -1 -2 -2 -0 1 1 0 -1 -0 -1 -2 -3 -3 -3 -2 -1 -1 1 4 6 4 1 -2 -3 -3 -2 1 4 5 4 2 -2 -3 -4 -3 -2 -2 -3 -3 -3 -3 -2 -2 -1 -1 -1 -2 -2 -2 -2 -2 -2 -2 -1 -1 -0 -0 0 1 1 1 0 -0 -1 -1 -1 -0 -0 0 1 1 0 0 0 0 1 1 2 2
1 1 -1 -1 0 2 3 2 1 1 2 3 3 2 0 -1 -1 -1 0 -1 -1 -1 -0 -1 0 2 5 5 2 -2 -5 -5 -4 -0 4 5 4 0 -3 -3 -2 -2 -1 -1 -1 -2 -3 -3 -3 -2 -1 -1 -2 -2 -3 -3 -3 -3 -2 -2 -2 -1 -0 -0 0 1 1 1 1 -0 -1 -1 -1 -0 0 0 1 1 0 0 0 0 1 1 2 2
0 0 -1 -1 1 2 3 3 3 3 4 4 2 1 0 0 1 1 1 0 0 0 -0 -0 1 3 5 5 2 -2 -5 -5 -4 -1 4 5 3 -1 -3 -2 -1 -0 1 1 0 -1 -2 -3 -2 -2 -1 -1 -2 -2 -3 -4 -3 -3 -3 -2 -1 -1 -0 0 1 1 1 1 1 0 -1 -1 -1 -0 0 1 1 1 1 0 1 1 1 2 2 2
0 0 -0 0 1 2 3 3 3 2 2 1 -0 -1 -0 1 1 1 1 1 1 0 -1 -1 1 2 5 6 2 -3 -4 -3 -2 -1 3 5 4 0 -2 -2 -1 1 2 2 0 -1 -2 -2 -1 -1 -1 -1 -2 -3 -4 -4 -4 -4 -3 -2 -1 -0 0 1 1 1 1 1 0 -0 -1 -1 -1 -0 -0 0 0 0 0 0 0 1 1 2 2 2
-1 -0 0 0 0 1 3 4 3 1 -1 -2 -1 -0 1 1 1 1 0 1 1 0 -0 0 1 2 4 4 2 -2 -3 -2 -2 0 4 6 5 3 -1 -1 -0 2 4 3 0 -2 -3 -1 0 1 1 -0 -1 -2 -3 -4 -4 -3 -3 -2 -1 0 1 1 1 1 0 0 -0 -0 -1 -1 -1 -1 -1 -1 -1 -0 0 0 0 0 0 1 1 2
-2 -0 1 -0 -1 0 3 4 3 1 -2 -3 -2 0 1 1 1 1 1 0 0 0 1 2 2 2 2 3 2 0 -3 -3 -2 0 3 6 7 5 1 0 1 3 5 3 -0 -2 -2 -0 1 2 2 0 -1 -2 -3 -3 -3 -2 -1 -1 -0 0 1 1 0 0 -0 -1 -1 -1 -1 -1 -1 -1 -1 -1 -1 -0 0 1 1 1 1 1 1 1
-1 -0 1 -1 -1 -1 1 3 3 1 -1 -2 -2 -1 0 1 1 1 1 1 1 1 1 2 3 3 3 4 4 2 -1 -2 -2 -1 1 6 8 6 2 0 1 3 5 2 -0 -2 -1 1 2 2 1 -0 -2 -2 -2 -2 -2 -1 -0 0 1 1 1 0 -0 -1 -1 -1 -2 -2 -2 -2 -1 -1 -1 -1 -1 -0 0 0 1 1 1 1 1 1
-2 -0 1 -0 -1 -2 -1 1 2 1 -0 -1 -1 -1 -0 0 1 1 1 1 1 1 1 2 3 3 5 5 5 3 -0 -1 -3 -2 -0 5 8 6 2 -1 0 2 4 2 -0 -1 -0 2 2 2 0 -1 -2 -2 -2 -1 -1 -0 1 1 1 1 1 -0 -1 -1 -2 -2 -2 -2 -2 -2 -2 -1 -1 -1 -1 -1 -0 -0 0 0 0 1 0 0
-2 0 2 1 -0 -2 -1 -0 0 1 0 0 0 -0 -0 -0 -1 -1 -1 0 0 1 1 1 2 4 5 4 3 2 1 -2 -3 -3 -0 3 6 5 2 -1 -0 2 4 3 1 -0 1 2 2 1 -1 -1 -1 -1 -1 -1 -0 0 1 1 1 1 0 -0 -1 -1 -2 -1 -1 -2 -2 -2 -1 -1 -1 -1 -1 -1 -1 -1 -1 -0 -0 0 0 0
-2 -0 1 1 0 -1 -1 -1 -0 -0 -1 -1 -1 -1 -1 -1 -1 -2 -1 -1 -0 -0 -0 0 2 3 4 3 2 2 1 -2 -3 -3 -1 1 3 4 3 0 0 2 5 4 3 2 1 2 1 -0 -1 -2 -1 -1 -1 -0 0 1 1 2 1 1 0 -1 -1 -1 -1 -1 -1 -0 -1 -1 -1 -1 -1 -1 -1 -1 -1 -1 -0 -0 -1 -0 0 1
-1 -1 0 0 0 -0 -1 -1 -1 -1 -1 -1 -1 -1 -1 -2 -2 -2 -1 -0 -0 -1 -2 -1 0 1 1 1 1 1 -0 -2 -3 -3 -3 -1 2 4 4 0 -1 1 4 5 4 3 2 2 0 -1 -2 -2 -2 -1 -0 -0 0 1 1 2 1 1 0 -0 -1 -1 -1 -0 0 0 0 -0 -1 -1 -1 -1 -1 -1 -0 0 -0 -0 -1 -1 -1 -0
-0 0 0 0 0 -1 -1 -2 -2 -2 -2 -2 -2 -2 -3 -3 -3 -2 -0 1 1 -1 -2 -2 -1 -0 0 0 0 -0 -1 -2 -2 -3 -3 -2 1 3 2 -1 -2 0 3 3 3 2 2 1 -0 -2 -3 -2 -1 -1 -0 -0 -0 1 2 2 1 1 0 0 0 0 0 0 0 0 0 -0 -0 -1 -1 -1 -1 -1 -1 -1 -1 -1 -1 -2 -2 -1
0 0 0 0 -0 -1 -1 -2 -2 -2 -1 -2 -2 -3 -4 -5 -5 -4 -2 1 2 0 -2 -2 -1 -1 -0 0 0 -0 -1 -2 -2 -2 -2 -0 1 1 -0 -2 -2 -0 1 2 2 2 2 1 -0 -1 -2 -2 -1 -1 -1 -1 -0 0 1 1 1 1 0 0 0 0 0 0 0 -0 -0 -1 -1 -1 -1 -1 -1 -1 -1 -1 -2 -2 -2 -2 -2 -2
-0 -0 -0 -1 -1 -1 -1 -1 -1 -1 -1 -1 -1 -2 -3 -4 -5 -5 -3 -0 0 -0 -1 -1 -1 -0 0 1 1 1 -0 -1 -2 -2 -1 1 1 0 -2 -2 -2 -1 0 1 2 2 2 1 -0 -1 -1 -0 -0 -1 -1 -1 -1 0 1 1 1 1 0 -0 -0 -0 0 0 -0 -0 -1 -1 -1 -1 -1 -1 -0 0 0 -1 -2 -2 -2 -1 -1 -1
-0 -1 -1 -1 -1 -1 -1 -0 0 0 0 -0 -1 -2 -2 -2 -3 -4 -3 -1 -1 -1 -1 -1 -0 0 0 1 1 1 0 -2 -3 -2 0 1 1 -0 -1 -1 -1 -1 0 1 2 2 2 0 -0 -0 1 1 0 -1 -2 -2 -1 -0 1 1 1 1 0 -0 -0 -0 -0 -0 0 0 -0 -0 -1 -1 -1 -0 1 2 2 1 -1 -2 -2 -1 0 2
-0 -1 -2 -2 -2 -2 -1 -0 0 0 0 -1 -1 -2 -3 -3 -3 -4 -3 -1 -1 -1 -1 -1 -0 -0 0 1 1 1 0 -2 -2 -2 1 1 0 -1 -1 -0 -1 -1 0 1 2 2 2 0 -0 0 1 1 0 -1 -2 -2 -1 -0 0 1 1 1 1 0 -0 -0 -0 0 1 1 1 1 1 1 1 1 2 3 4 2 0 -1 -2 -0 1 3
1 -0 -1 -2 -2 -1 -1 -1 -0 0 -0 -1 -1 -2 -3 -3 -4 -3 -3 -1 -1 -1 -1 -1 -1 -1 -0 0 1 1 0 -2 -2 -1 1 1 0 -1 -0 -0 -1 -1 0 2 2 2 2 1 0 0 1 1 -0 -1 -2 -2 -1 -0 0 1 1 1 1 1 -0 -1 -1 -0 1 2 2 2 2 2 2 3 3 4 4 3 2 0 -0 1 2 3
2 1 0 -0 -0 -0 -0 -0 -0 -0 -0 -0 -1 -1 -2 -3 -3 -3 -2 -1 -1 -1 -1 -1 -1 -1 -1 -0 0 0 0 -1 -1 -0 2 2 1 -0 0 0 -0 -1 -1 1 2 2 2 1 0 -0 0 0 -0 -1 -2 -1 -1 -1 -0 0 1 1 1 1 0 -1 -1 -1 0 1 2 2 2 2 3 3 3 3 3 3 2 1 1 2 2 3
3 2 2 2 2 1 1 0 -0 -0 -0 0 0 -0 -1 -1 -2 -2 -2 -1 -1 -1 -2 -2 -2 -2 -1 -1 0 0 0 -1 -1 0 2 2 1 -0 -0 0 -0 -1 -1 0 1 1 1 1 0 0 0 -0 -1 -1 -1 -1 -1 -1 -1 -0 0 1 1 1 1 -0 -1 -1 -1 0 1 1 1 1 2 2 2 2 2 2 2 1 2 2 2 3
2 2 2 2 2 1 1 0 -0 -0 -0 0 1 0 -0 -1 -1 -2 -2 -1 -1 -1 -2 -2 -2 -2 -2 -1 0 1 1 -1 -1 -0 2 2 1 -0 -0 0 -0 -0 -0 -0 0 0 1 0 0 0 -0 -0 -1 -1 -1 -1 -1 -1 -1 -1 -0 0 1 1 1 0 -0 -1 -1 -0 -0 0 0 0 1 1 1 1 1 1 1 1 1 2 2 3
2 1 1 1 1 0 -0 -1 -1 -1 -0 1 1 0 -0 -1 -1 -2 -2 -2 -2 -2 -2 -2 -1 -1 -1 -1 -0 0 0 -1 -1 -1 1 1 0 -1 -0 -0 -1 -0 0 -0 -0 -0 -0 -0 -0 -0 -0 -0 -1 -1 -0 0 -0 -1 -1 -1 -1 0 1 1 1 1 1 0 -0 -0 -0 -0 -0 -0 -0 0 0 0 0 0 0 0 0 1 2 2
1 1 0 -0 -0 -1 -1 -1 -1 -1 -1 0 1 0 -0 -1 -2 -2 -2 -2 -2 -1 -1 -1 -1 -1 -1 -1 -1 -0 -0 -1 -1 -1 0 0 -0 -0 -1 -1 -1 -1 -0 -1 -1 -0 0 -0 -1 -0 0 -0 -0 -1 -0 0 0 -1 -1 -1 -1 -1 -0 0 1 1 1 1 0 -0 -1 -1 -1 -1 -1 -0 0 0 0 0 0 -0 0 0 1 1
0 -0 -1 -1 -1 -1 -0 -1 -1 -1 -1 -0 0 0 -0 -1 -1 -2 -2 -2 -2 -1 -1 -1 -1 -1 -1 -1 -1 -0 -1 -1 -1 -0 -0 0 0 0 -1 -2 -2 -1 -1 -1 -1 -1 0 0 -0 -0 -0 0 -0 -0 -0 -0 -0 -0 -1 -1 -1 -1 -1 -0 0 0 1 1 0 0 -0 -1 -1 -1 -1 -0 0 1 1 1 1 0 0 -0 0 1
-1 -1 -1 -1 -0 0 0 0 -0 -1 -1 -0 0 0 -0 -1 -1 -1 -1 -2 -1 -1 -1 -1 -1 -1 -1 -1 -1 -0 0 0 -0 -0 0 0 1 1 0 -1 -2 -2 -1 -1 -1 -1 -0 0 0 -0 -0 -0 -0 0 -0 0 -0 -0 -1 -1 -1 -1 -1 -1 -1 -1 -1 -0 0 0 0 -0 -0 -1 -1 -1 -0 0 1 1 1 1 1 0 -0 0
-1 -1 -0 -0 -0 0 1 0 0 -0 -0 0 0 0 0 0 -0 -0 -0 -1 -1 -1 -1 -1 -1 -0 -0 -0 0 0 0 0 -0 -0 0 0 0 1 0 -0 -1 -1 -1 -0 -0 0 0 0 0 0 0 0 -0 -0 -0 -0 0 0 -0 -1 -1 -1 -1 -1 -1 -1 -2 -1 -1 0 1 1 0 0 -0 -0 -0 0 1 1 1 1 1 1 1 0
-0 -0 -0 -0 -0 0 1 0 0 0 0 0 0 1 1 1 0 0 -0 -1 -1 -1 -2 -1 -1 -1 -0 0 0 0 -0 -0 -1 -1 -0 -0 0 0 0 -0 -1 -1 -1 -0 0 1 1 0 -0 -0 0 0 0 0 -0 -1 -0 0 0 0 -1 -1 -1 -1 -1 -1 -2 -2 -1 -1 0 0 1 1 1 1 0 0 0 0 0 1 1 1 1 2
0 0 -0 -0 -0 -0 0 0 0 1 1 1 1 1 0 -0 -1 -1 -1 -1 -2 -2 -2 -2 -2 -2 -1 -0 -0 -0 -1 -1 -1 -1 -1 -0 -0 -0 -0 -0 -0 -1 -1 -0 0 1 1 1 0 0 -0 0 0 0 0 -0 -0 0 1 0 -0 -1 -0 -0 -0 -1 -1 -1 -1 -1 -1 -0 0 1 1 1 1 1 1 0 0 0 1 1 1 1
-0 -0 -1 -1 -1 -1 -1 -1 -0 0 0 0 0 -0 -1 -2 -2 -1 -1 -1 -1 -1 -1 -1 -2 -2 -2 -1 -1 -1 -1 -2 -2 -2 -1 -1 -0 -0 -0 -0 -0 -0 0 0 0 0 1 1 1 1 0 0 1 0 -0 -1 -1 -0 1 0 0 -0 -0 -0 0 1 0 -1 -2 -2 -1 -1 -0 0 1 2 2 2 2 1 1 0 1 1 1 1
-1 -1 -2 -2 -2 -2 -2 -1 -1 -1 -0 -0 -0 -1 -1 -1 -1 -1 -0 -0 -0 -1 -1 -0 -0 0 0 -0 -1 -1 -2 -2 -2 -2 -2 -1 -1 -0 0 0 0 0 0 0 0 0 1 2 2 1 1 1 1 1 -0 -1 -1 -1 0 1 1 1 -0 -1 -0 1 1 -0 -1 -2 -2 -1 -1 -0 1 1 2 2 2 2 1 1 1 1 1 1
-1 -1 -2 -2 -2 -1 -1 -1 -1 -0 0 1 1 0 0 0 0 1 1 0 0 0 -0 -0 0 1 2 1 1 -0 -2 -3 -3 -3 -3 -3 -2 -1 -0 0 0 0 1 0 -0 -0 0 1 1 1 1 2 1 1 -0 -1 -1 -1 -0 0 1 1 0 -1 -0 1 1 0 -0 -1 -1 -1 -1 -0 0 0 1 1 2 2 2 2 1 1 1 1
0 -0 -0 -0 0 0 0 -0 0 1 1 1 1 1 1 0 1 1 1 0 0 -0 -1 -0 0 1 1 1 1 0 -1 -2 -3 -4 -4 -4 -3 -2 -1 -1 -1 -0 -0 -0 -0 -0 0 0 0 0 1 2 1 1 -0 -1 -1 -1 -1 -0 1 1 0 -0 0 0 0 0 0 0 0 0 0 -0 -0 -0 0 0 1 1 2 2 2 2 2 1
1 1 1 1 1 1 1 1 1 2 2 2 1 1 1 1 1 1 1 1 0 -0 -1 -0 1 1 0 0 0 0 -0 -1 -2 -3 -3 -4 -4 -4 -2 -2 -1 -1 -1 -1 -0 -0 0 -0 -0 0 1 1 1 0 -0 -1 -1 -1 -2 -1 0 0 -0 -0 -0 0 1 1 1 1 1 1 1 0 -0 -1 -1 -0 0 0 1 1 1 2 2 2
0 1 1 1 1 1 0 1 1 1 1 1 1 0 0 0 0 0 0 0 0 -0 -1 -0 0 1 0 0 0 0 -0 -1 -1 -1 -2 -3 -4 -4 -4 -3 -2 -1 -0 -1 -1 -0 -0 -0 -0 0 0 0 0 0 -0 -0 -1 -1 -2 -1 -1 -0 -1 -1 -1 -0 1 1 2 2 2 2 1 0 -0 -0 0 0 0 0 0 0 1 1 1 1
0 0 0 0 0 0 -0 -0 -0 0 0 -0 -0 -0 -1 -0 -0 0 -0 -0 0 -0 -1 -0 -0 0 0 0 -0 -0 -0 -0 -0 -1 -1 -2 -3 -4 -4 -3 -2 -2 -1 -0 -0 -0 -0 0 0 0 0 -0 -0 -0 -0 0 -0 -0 -1 -1 -1 -1 -2 -2 -2 -1 0 1 2 2 3 2 1 0 0 1 1 1 1 0 0 0 0 0 0 0
0 -0 -0 -0 -0 -0 -1 -1 -0 0 0 -0 0 0 -0 0 0 1 0 0 0 0 0 -0 -0 -0 -0 -0 -1 -1 -0 -0 -0 -0 -0 -1 -2 -3 -3 -3 -3 -2 -1 -1 -0 0 0 0 1 1 0 -1 -1 -1 -1 0 1 1 1 0 -0 -1 -2 -2 -2 -1 -0 1 2 2 3 2 1 1 1 2 1 1 1 1 1 1 0 0 0 -0
-1 -1 -1 -1 -0 -0 -0 -0 0 0 0 0 1 1 0 0 0 0 0 1 1 1 0 0 -0 -0 -0 -1 -1 -1 -1 -1 -1 -0 -1 -1 -1 -2 -3 -3 -2 -2 -2 -2 -1 -0 0 1 1 1 1 -1 -2 -2 -2 -1 1 2 2 1 0 -1 -1 -2 -2 -1 -1 0 1 2 3 2 2 1 2 1 1 1 1 1 1 0 0 0 -0 -1
-2 -2 -2 -1 -1 -1 -0 -0 0 0 -0 0 0 1 1 0 0 -0 0 0 0 0 0 0 0 0 -0 -1 -1 -1 -1 -1 -1 -1 -1 -1 -1 -1 -2 -2 -2 -2 -2 -2 -1 -1 0 1 1 1 0 -2 -3 -3 -2 -1 1 2 2 1 1 1 0 -1 -1 -1 -0 0 1 2 3 3 2 2 1 1 0 0 0 0 -0 -0 -1 -0 -1 -1
Height
5488 5485 5483 5482 5480 5478 5477 5475 5474 5472 5470 5468 5467 5467 5465 5463 5462 5461 5460 5459 5458 5457 5456 5456 5455 5455 5454 5454 5453 5453 5452 5452 5452 5452 5451 5451 5451 5451 5451 5451 5451 5451 5451 5452 5452 5452 5452 5452 5453 5453 5453 5454 5454 5455 5456 5456 5457 5457 5458 5459 5460 5461 5462 5463 5464 5466 5467 5468 5470 5472 5473 5476 5478 5480 5483 5486 5488 5491 5494 5497 5500 5503 5506 5508 5511 5513
5481 5479 5477 5476 5475 5473 5471 5470 5469 5467 5465 5463 5462 5461 5460 5459 5457 5456 5456 5455 5453 5452 5452 5451 5451 5451 5450 5450 5449 5449 5448 5448 5448 5447 5447 5447 5447 5447 5447 5447 5447 5447 5447 5447 5447 5447 5447 5447 5448 5448 5448 5449 5449 5449 5450 5451 5451 5452 5453 5453 5454 5455 5456 5457 5458 5459 5460 5461 5463 5464 5466 5467 5469 5471 5474 5476 5479 5482 5485 5487 5491 5493 5496 5499 5502 5505
5476 5473 5472 5470 5469 5468 5466 5465 5463 5462 5460 5458 5457 5456 5455 5454 5452 5452 5451 5450 5449 5448 5448 5447 5447 5447 5446 5446 5446 5445 5445 5444 5444 5444 5443 5443 5443 5443 5443 5443 5442 5442 5442 5442 5442 5442 5442 5442 5443 5443 5443 5443 5444 5444 5445 5445 5446 5446 5447 5448 5448 5449 5450 5451 5452 5453 5454 5455 5456 5457 5458 5460 5461 5463 5465 5467 5470 5472 5475 5478 5481 5484 5487 5490 5493 5496
5470 5468 5466 5465 5464 5463 5461 5460 5458 5456 5455 5453 5452 5451 5450 5449 5448 5447 5447 5446 5445 5444 5444 5443 5443 5442 5442 5442 5442 5442 5441 5441 5440 5440 5439 5439 5439 5439 5439 5439 5438 5438 5438 5437 5437 5437 5437 5437 5437 5438 5438 5438 5439 5439 5439 5440 5440 5441 5442 5442 5443 5444 5444 5445 5446 5447 5448 5449 5450 5451 5452 5453 5454 5456 5457 5459 5461 5464 5466 5469 5472 5475 5477 5481 5484 5487
5465 5462 5461 5459 5458 5457 5456 5455 5453 5451 5449 5448 5447 5446 5445 5444 5443 5443 5442 5442 5441 5441 5440 5440 5439 5439 5438 5438 5438 5438 5437 5437 5436 5436 5436 5435 5435 5435 5435 5434 5434 5433 5433 5433 5432 5432 5432 5432 5432 5432 5433 5433 5434 5434 5434 5435 5435 5436 5437 5437 5437 5438 5439 5439 5440 5441 5442 5442 5444 5445 5446 5447 5448 5449 5450 5452 5454 5456 5458 5460 5463 5466 5469 5472 5475 5479
5459 5457 5456 5454 5453 5452 5451 5449 5448 5446 5444 5443 5442 5442 5441 5440 5439 5439 5438 5438 5437 5437 5437 5436 5436 5435 5435 5434 5434 5433 5433 5432 5432 5432 5432 5431 5431 5431 5430 5430 5429 5429 5428 5428 5428 5427 5427 5427 5428 5428 5428 5428 5429 5429 5430 5430 5431 5431 5432 5432 5432 5433 5433 5434 5434 5435 5436 5437 5437 5438 5439 5440 5442 5442 5444 5445 5447 5448 5450 5452 5455 5457 5460 5463 5467 5470
5454 5452 5451 5449 5447 5447 5446 5444 5443 5441 5440 5438 5438 5437 5437 5436 5436 5435 5435 5434 5434 5433 5433 5432 5432 5432 5431 5430 5430 5429 5429 5428 5428 5427 5427 5427 5427 5426 5426 5425 5425 5424 5424 5424 5423 5423 5423 5423 5423 5423 5424 5424 5424 5425 5425 5426 5426 5427 5427 5427 5427 5428 5428 5428 5429 5430 5430 5431 5432 5432 5433 5434 5435 5436 5437 5438 5440 5441 5443 5445 5447 5449 5452 5455 5458 5462
5448 5447 5446 5444 5442 5441 5440 5440 5438 5437 5435 5434 5434 5434 5433 5433 5432 5432 5431 5431 5431 5430 5429 5429 5428 5428 5427 5427 5426 5425 5425 5424 5424 5423 5423 5422 5422 5422 5421 5421 5421 5420 5420 5419 5419 5419 5419 5419 5419 5419 5420 5420 5420 5420 5421 5421 5421 5422 5422 5422 5422 5422 5423 5423 5424 5424 5425 5425 5426 5427 5427 5428 5429 5430 5432 5432 5433 5435 5436 5438 5440 5442 5444 5447 5450 5454
5442 5441 5441 5440 5438 5436 5435 5435 5434 5432 5431 5430 5430 5430 5430 5429 5429 5429 5428 5428 5427 5427 5426 5425 5425 5425 5424 5423 5422 5421 5421 5420 5420 5419 5419 5418 5418 5417 5417 5417 5416 5416 5416 5415 5415 5415 5415 5415 5415 5415 5415 5415 5416 5416 5416 5416 5416 5417 5417 5417 5417 5417 5417 5418 5418 5419 5419 5420 5420 5421 5422 5422 5423 5424 5425 5426 5427 5428 5430 5431 5433 5435 5437 5439 5442 5446
5437 5437 5435 5434 5434 5432 5431 5430 5430 5429 5427 5426 5426 5426 5426 5426 5425 5425 5425 5425 5424 5423 5422 5422 5421 5421 5421 5420 5419 5417 5417 5416 5416 5416 5415 5414 5413 5413 5412 5412 5412 5412 5411 5411 5411 5411 5411 5411 5411 5411 5411 5411 5411 5411 5411 5411 5411 5411 5411 5411 5412 5412 5412 5412 5413 5413 5414 5414 5414 5415 5416 5417 5417 5418 5419 5420 5422 5422 5424 5425 5426 5428 5430 5432 5435 5438
5432 5432 5431 5430 5429 5428 5427 5426 5426 5425 5424 5423 5422 5422 5422 5422 5421 5421 5420 5421 5421 5420 5419 5418 5417 5417 5417 5416 5415 5414 5413 5412 5412 5412 5411 5410 5409 5409 5408 5408 5407 5407 5407 5407 5407 5407 5406 5406 5406 5406 5406 5406 5406 5406 5406 5406 5406 5406 5406 5406 5406 5407 5407 5407 5408 5408 5408 5409 5409 5410 5410 5411 5412 5413 5414 5415 5416 5417 5417 5419 5420 5422 5423 5425 5428 5431
5427 5427 5426 5425 5425 5424 5424 5423 5422 5422 5421 5420 5419 5419 5419 5419 5418 5417 5416 5416 5416 5416 5415 5414 5414 5413 5413 5412 5411 5411 5410 5409 5408 5408 5407 5407 5406 5405 5404 5403 5403 5403 5402 5402 5402 5402 5402 5402 5401 5401 5401 5401 5401 5401 5401 5400 5401 5401 5401 5401 5401 5402 5402 5402 5402 5403 5403 5403 5404 5404 5405 5405 5406 5407 5408 5409 5410 5411 5412 5413 5414 5416 5417 5419 5422 5424
5423 5423 5422 5421 5421 5420 5420 5419 5418 5418 5417 5417 5416 5415 5415 5415 5414 5413 5412 5412 5412 5412 5411 5410 5410 5410 5409 5408 5407 5407 5406 5405 5405 5404 5404 5403 5402 5401 5400 5399 5399 5398 5398 5398 5398 5398 5398 5397 5397 5397 5397 5396 5396 5396 5396 5395 5395 5395 5395 5396 5396 5396 5397 5397 5397 5397 5398 5398 5398 5399 5399 5400 5401 5401 5402 5403 5404 5405 5406 5407 5409 5410 5412 5413 5416 5418
5420 5419 5418 5418 5417 5417 5416 5416 5415 5414 5414 5413 5413 5412 5411 5411 5410 5409 5408 5408 5408 5407 5407 5407 5406 5406 5406 5404 5403 5402 5402 5401 5401 5401 5400 5399 5398 5397 5396 5395 5395 5395 5394 5394 5394 5394 5393 5393 5392 5392 5392 5392 5391 5391 5391 5390 5390 5390 5390 5390 5390 5391 5391 5391 5392 5392 5392 5393 5393 5393 5394 5394 5395 5396 5397 5398 5399 5400 5401 5402 5403 5404 5406 5408 5410 5412
5417 5416 5416 5415 5414 5414 5413 5413 5412 5411 5411 5410 5410 5409 5408 5407 5407 5405 5404 5404 5403 5403 5403 5402 5402 5402 5402 5401 5399 5398 5397 5397 5397 5397 5397 5396 5395 5394 5392 5392 5392 5392 5391 5391 5390 5390 5389 5389 5388 5388 5388 5387 5387 5386 5386 5385 5385 5385 5385 5385 5385 5385 5385 5386 5386 5386 5387 5387 5387 5388 5388 5389 5390 5391 5392 5392 5393 5394 5395 5396 5397 5399 5400 5402 5404 5406
5414 5413 5412 5412 5412 5411 5411 5410 5409 5408 5408 5407 5406 5405 5404 5403 5402 5402 5401 5400 5400 5400 5399 5398 5398 5398 5398 5397 5396 5394 5393 5393 5393 5393 5393 5393 5392 5390 5389 5388 5388 5388 5388 5387 5387 5386 5386 5385 5384 5384 5383 5383 5382 5382 5381 5381 5381 5380 5380 5380 5380 5380 5380 5380 5380 5381 5381 5382 5382 5383 5383 5384 5385 5385 5386 5387 5388 5389 5390 5391 5392 5393 5395 5397 5399 5401
5410 5410 5409 5409 5408 5408 5408 5407 5406 5405 5404 5403 5402 5401 5400 5399 5399 5398 5397 5397 5396 5396 5395 5395 5395 5395 5395 5394 5393 5391 5390 5389 5389 5390 5390 5389 5388 5387 5386 5385 5385 5385 5385 5384 5383 5383 5382 5381 5381 5380 5380 5379 5378 5378 5377 5377 5376 5376 5375 5375 5375 5375 5374 5375 5375 5375 5376 5377 5377 5378 5378 5379 5380 5381 5381 5382 5383 5384 5385 5386 5387 5388 5390 5392 5394 5396
5407 5407 5406 5406 5405 5405 5404 5404 5403 5402 5401 5399 5398 5397 5397 5396 5395 5394 5393 5393 5392 5392 5392 5392 5391 5391 5391 5391 5390 5388 5387 5386 5386 5386 5386 5386 5386 5385 5383 5382 5382 5382 5382 5381 5380 5379 5378 5378 5377 5377 5376 5376 5375 5374 5373 5372 5372 5371 5371 5370 5370 5370 5370 5370 5370 5371 5371 5372 5372 5373 5374 5374 5375 5376 5377 5377 5378 5379 5380 5381 5382 5384 5385 5387 5389 5391
5404 5404 5403 5402 5402 5402 5401 5400 5399 5397 5396 5395 5394 5393 5393 5392 5392 5391 5390 5389 5389 5389 5388 5388 5388 5388 5387 5387 5386 5385 5384 5383 5383 5383 5383 5383 5383 5382 5381 5380 5379 5379 5379 5378 5377 5376 5375 5375 5374 5374 5373 5372 5372 5371 5369 5368 5368 5367 5367 5366 5366 5366 5366 5366 5366 5366 5367 5367 5368 5369 5369 5370 5371 5371 5372 5373 5373 5374 5376 5377 5378 5379 5381 5383 5385 5387
5401 5401 5400 5399 5399 5398 5398 5397 5396 5394 5392 5391 5391 5390 5389 5388 5388 5387 5387 5386 5386 5385 5385 5385 5385 5384 5384 5383 5383 5382 5381 5380 5380 5380 5380 5380 5380 5379 5378 5377 5376 5376 5376 5375 5374 5372 5372 5372 5371 5371 5370 5369 5368 5367 5366 5365 5364 5363 5363 5362 5362 5362 5362 5362 5362 5362 5363 5363 5364 5365 5365 5366 5366 5367 5367 5368 5369 5370 5371 5372 5374 5375 5377 5379 5381 5384
5398 5397 5397 5397 5396 5394 5394 5393 5392 5390 5389 5387 5387 5386 5386 5385 5385 5384 5383 5383 5383 5382 5382 5382 5382 5381 5381 5381 5380 5379 5378 5377 5377 5376 5376 5377 5377 5376 5375 5374 5373 5373 5373 5372 5371 5369 5369 5368 5368 5368 5367 5366 5364 5363 5362 5361 5361 5360 5359 5359 5358 5358 5358 5358 5359 5359 5360 5360 5360 5361 5362 5362 5362 5363 5364 5364 5365 5366 5367 5369 5370 5372 5373 5376 5378 5381
5396 5395 5394 5394 5392 5391 5390 5389 5388 5387 5385 5384 5383 5383 5382 5382 5381 5381 5380 5380 5380 5379 5379 5379 5379 5378 5378 5378 5377 5376 5375 5374 5374 5373 5373 5373 5373 5373 5372 5371 5370 5370 5370 5369 5368 5367 5366 5366 5365 5364 5363 5362 5361 5360 5359 5358 5357 5357 5356 5356 5355 5355 5355 5356 5356 5356 5356 5357 5357 5357 5358 5358 5359 5360 5360 5361 5362 5363 5364 5365 5367 5368 5370 5372 5375 5377
5393 5392 5391 5390 5389 5388 5387 5385 5384 5383 5382 5381 5380 5380 5379 5378 5378 5377 5377 5377 5377 5376 5376 5376 5376 5375 5375 5374 5373 5373 5372 5371 5371 5370 5370 5370 5370 5370 5369 5367 5367 5367 5367 5366 5365 5364 5363 5363 5362 5361 5360 5358 5357 5356 5355 5355 5354 5354 5353 5353 5352 5352 5352 5353 5353 5353 5353 5354 5354 5354 5355 5355 5356 5356 5357 5358 5359 5360 5361 5362 5364 5365 5367 5369 5372 5374
5389 5388 5388 5387 5385 5384 5383 5382 5381 5380 5379 5378 5377 5376 5376 5375 5375 5374 5374 5374 5374 5373 5373 5372 5372 5372 5372 5371 5371 5370 5369 5368 5367 5367 5367 5366 5366 5366 5366 5365 5364 5363 5363 5363 5362 5361 5361 5360 5359 5357 5356 5355 5354 5353 5352 5352 5351 5351 5351 5350 5350 5350 5350 5350 5350 5350 5351 5351 5351 5351 5352 5352 5353 5353 5354 5355 5356 5357 5358 5360 5361 5362 5364 5366 5368 5371
5386 5385 5384 5383 5382 5381 5380 5378 5377 5376 5375 5374 5373 5373 5372 5372 5372 5372 5372 5372 5371 5371 5370 5369 5369 5369 5368 5368 5367 5367 5366 5365 5365 5364 5364 5363 5362 5363 5362 5362 5361 5360 5361 5360 5360 5359 5358 5357 5356 5354 5353 5352 5351 5350 5350 5349 5349 5348 5348 5348 5347 5347 5347 5347 5347 5348 5348 5348 5348 5348 5349 5349 5350 5351 5352 5352 5353 5354 5356 5357 5358 5360 5361 5363 5365 5368
5383 5382 5381 5380 5379 5378 5377 5376 5375 5374 5373 5372 5372 5371 5371 5370 5370 5370 5370 5369 5369 5368 5367 5367 5366 5366 5365 5365 5365 5364 5364 5363 5362 5361 5360 5360 5360 5360 5360 5359 5358 5357 5357 5357 5357 5356 5355 5354 5353 5352 5350 5349 5348 5348 5347 5347 5346 5346 5346 5345 5345 5345 5345 5345 5345 5345 5345 5345 5346 5346 5346 5347 5347 5348 5349 5350 5351 5352 5353 5354 5356 5357 5359 5360 5362 5365
5380 5379 5378 5377 5376 5375 5374 5373 5372 5372 5372 5372 5372 5371 5371 5370 5369 5368 5367 5367 5366 5366 5365 5364 5364 5363 5363 5363 5362 5362 5361 5360 5359 5358 5358 5357 5357 5357 5357 5356 5355 5355 5355 5355 5354 5354 5353 5352 5351 5349 5348 5347 5346 5345 5345 5344 5344 5343 5343 5343 5343 5342 5342 5342 5342 5342 5342 5343 5343 5343 5344 5345 5345 5346 5347 5348 5349 5350 5351 5352 5353 5355 5356 5358 5360 5362
5377 5376 5375 5374 5373 5372 5371 5370 5370 5369 5369 5369 5368 5368 5367 5367 5366 5364 5363 5363 5363 5363 5362 5362 5362 5361 5361 5360 5360 5359 5359 5358 5357 5356 5356 5356 5355 5355 5354 5353 5353 5352 5352 5352 5352 5352 5351 5349 5348 5347 5346 5345 5344 5343 5342 5342 5342 5341 5341 5341 5341 5340 5340 5340 5340 5340 5340 5340 5341 5341 5342 5342 5343 5344 5345 5346 5347 5347 5348 5350 5351 5352 5354 5356 5357 5360
5374 5373 5372 5371 5369 5368 5367 5367 5366 5366 5365 5364 5363 5363 5362 5362 5361 5361 5361 5361 5361 5361 5360 5359 5359 5359 5358 5358 5357 5357 5357 5356 5355 5354 5353 5354 5353 5352 5352 5351 5351 5350 5350 5350 5350 5350 5348 5347 5346 5345 5344 5343 5342 5341 5341 5340 5339 5339 5339 5339 5338 5338 5338 5338 5338 5338 5338 5338 5338 5339 5339 5340 5341 5341 5342 5343 5344 5345 5346 5347 5349 5350 5352 5353 5355 5357
5371 5370 5369 5367 5367 5365 5365 5364 5363 5363 5362 5362 5361 5360 5360 5359 5359 5358 5358 5359 5359 5358 5357 5357 5357 5356 5356 5356 5356 5355 5354 5353 5352 5352 5351 5351 5351 5350 5350 5349 5348 5348 5347 5347 5348 5347 5347 5345 5344 5343 5342 5342 5341 5340 5339 5338 5337 5337 5337 5337 5336 5336 5336 5336 5336 5336 5336 5336 5336 5336 5337 5337 5338 5339 5339 5340 5341 5342 5343 5345 5346 5347 5349 5351 5353 5355
5368 5367 5366 5365 5364 5363 5362 5361 5361 5360 5360 5359 5358 5358 5357 5357 5356 5356 5356 5357 5357 5356 5355 5355 5354 5354 5353 5353 5353 5353 5352 5352 5351 5350 5349 5349 5349 5348 5347 5347 5346 5346 5346 5345 5346 5346 5345 5344 5343 5342 5340 5339 5339 5338 5337 5336 5336 5335 5335 5335 5334 5334 5334 5334 5334 5334 5334 5334 5334 5334 5335 5335 5336 5337 5337 5338 5338 5339 5341 5342 5343 5345 5346 5348 5350 5352
5366 5365 5364 5362 5362 5361 5360 5359 5359 5358 5357 5357 5356 5356 5355 5354 5354 5354 5354 5354 5354 5354 5353 5352 5352 5352 5351 5351 5351 5351 5350 5349 5349 5348 5347 5347 5347 5346 5346 5345 5344 5344 5343 5343 5343 5343 5343 5342 5341 5340 5339 5338 5337 5336 5335 5335 5334 5334 5333 5333 5333 5333 5332 5332 5332 5332 5332 5332 5332 5332 5333 5333 5334 5334 5335 5336 5336 5337 5338 5339 5341 5342 5344 5345 5347 5350
5363 5362 5361 5360 5359 5359 5358 5357 5357 5356 5356 5355 5354 5354 5353 5352 5352 5352 5352 5352 5352 5352 5351 5350 5350 5349 5349 5348 5348 5348 5347 5347 5347 5346 5345 5345 5345 5344 5344 5343 5342 5342 5341 5341 5341 5341 5340 5340 5339 5338 5337 5336 5335 5334 5333 5333 5333 5332 5332 5332 5332 5331 5331 5331 5331 5331 5331 5331 5331 5331 5331 5332 5332 5332 5333 5334 5334 5335 5336 5337 5338 5340 5341 5343 5345 5347
5360 5359 5359 5358 5357 5357 5356 5355 5355 5354 5354 5353 5352 5352 5351 5350 5350 5349 5349 5349 5349 5349 5349 5348 5347 5347 5347 5346 5346 5346 5345 5345 5344 5343 5343 5343 5342 5342 5342 5341 5340 5339 5339 5339 5338 5338 5338 5337 5337 5336 5335 5334 5334 5333 5332 5332 5331 5331 5331 5331 5330 5330 5330 5330 5330 5329 5329 5329 5330 5330 5330 5330 5331 5331 5332 5332 5333 5334 5334 5336 5337 5338 5339 5341 5343 5345
5357 5357 5356 5355 5355 5354 5354 5353 5353 5352 5352 5351 5350 5350 5349 5348 5348 5347 5347 5347 5346 5346 5346 5346 5345 5345 5344 5344 5343 5343 5343 5342 5342 5341 5341 5340 5340 5339 5339 5338 5337 5337 5337 5336 5336 5336 5336 5335 5335 5334 5334 5333 5332 5331 5331 5330 5330 5330 5329 5329 5329 5329 5328 5328 5328 5328 5328 5328 5328 5329 5329 5329 5330 5330 5331 5331 5332 5332 5333 5334 5335 5336 5337 5339 5341 5343
5354 5353 5353 5352 5352 5351 5351 5351 5351 5350 5350 5349 5348 5347 5347 5346 5346 5345 5345 5344 5344 5343 5343 5343 5342 5342 5342 5342 5341 5341 5341 5340 5339 5339 5338 5337 5337 5337 5336 5335 5335 5334 5334 5333 5333 5333 5333 5333 5332 5332 5332 5331 5330 5330 5329 5329 5328 5328 5328 5328 5327 5327 5327 5327 5327 5327 5327 5327 5327 5328 5328 5328 5329 5329 5330 5330 5331 5332 5332 5333 5334 5335 5336 5338 5340 5342
5351 5351 5350 5350 5349 5349 5348 5348 5348 5348 5347 5347 5346 5345 5344 5344 5343 5342 5342 5342 5341 5341 5341 5340 5340 5339 5339 5339 5339 5338 5338 5338 5337 5336 5336 5335 5334 5334 5333 5332 5332 5332 5331 5331 5331 5331 5331 5331 5331 5330 5330 5329 5329 5328 5328 5327 5327 5327 5327 5326 5326 5326 5326 5326 5326 5326 5326 5326 5326 5327 5327 5327 5328 5328 5329 5329 5330 5331 5332 5332 5333 5334 5335 5337 5339 5341
5348 5348 5347 5347 5347 5346 5346 5346 5346 5345 5345 5344 5343 5343 5342 5342 5341 5340 5339 5339 5338 5338 5338 5337 5337 5337 5337 5336 5336 5336 5335 5335 5334 5334 5333 5332 5332 5331 5331 5330 5329 5329 5328 5328 5328 5328 5328 5328 5328 5328 5328 5327 5327 5327 5326 5326 5326 5325 5325 5325 5324 5324 5324 5324 5324 5324 5324 5325 5325 5325 5326 5326 5327 5327 5328 5328 5329 5330 5331 5332 5332 5333 5334 5335 5337 5340
5346 5345 5345 5344 5344 5344 5343 5343 5343 5343 5342 5342 5341 5340 5339 5339 5338 5337 5337 5336 5336 5335 5335 5335 5335 5334 5334 5334 5333 5333 5333 5332 5332 5331 5330 5330 5329 5329 5328 5328 5327 5326 5326 5326 5326 5326 5326 5326 5326 5326 5326 5326 5325 5325 5325 5324 5324 5323 5323 5323 5323 5323 5323 5323 5323 5323 5323 5323 5324 5324 5324 5325 5325 5326 5327 5327 5328 5329 5330 5331 5332 5332 5333 5334 5336 5338
5343 5342 5342 5342 5342 5342 5341 5341 5340 5340 5339 5339 5338 5337 5337 5336 5336 5335 5334 5334 5333 5333 5332 5332 5332 5332 5331 5331 5331 5330 5330 5329 5328 5328 5327 5327 5327 5326 5326 5325 5325 5324 5323 5323 5323 5323 5323 5323 5323 5323 5323 5323 5323 5323 5322 5322 5322 5322 5322 5321 5321 5321 5321 5321 5322 5322 5322 5322 5322 5323 5323 5323 5324 5325 5326 5326 5327 5327 5328 5330 5331 5331 5332 5333 5334 5336
5340 5340 5340 5339 5339 5339 5338 5338 5337 5337 5337 5336 5336 5335 5335 5334 5333 5333 5332 5332 5331 5330 5330 5329 5329 5328 5328 5328 5327 5327 5327 5326 5326 5325 5325 5324 5324 5323 5323 5322 5322 5322 5321 5321 5321 5321 5320 5320 5320 5320 5320 5321 5321 5321 5321 5320 5320 5320 5320 5319 5319 5319 5319 5319 5320 5320 5320 5321 5321 5321 5322 5322 5323 5323 5324 5325 5326 5326 5327 5328 5329 5330 5331 5332 5333 5334
5338 5337 5337 5337 5336 5336 5336 5335 5335 5334 5334 5334 5334 5333 5332 5332 5332 5331 5330 5330 5329 5328 5327 5327 5326 5326 5326 5325 5325 5324 5324 5323 5322 5322 5322 5321 5321 5321 5320 5320 5319 5319 5319 5319 5318 5318 5318 5318 5317 5317 5318 5318 5318 5318 5318 5318 5318 5318 5318 5317 5317 5317 5317 5317 5318 5318 5318 5319 5319 5319 5320 5321 5322 5322 5323 5323 5324 5325 5326 5327 5327 5329 5330 5331 5332 5333
5335 5335 5335 5334 5334 5333 5333 5332 5332 5332 5332 5332 5331 5331 5330 5329 5329 5328 5328 5327 5326 5326 5325 5324 5324 5323 5323 5322 5322 5322 5321 5320 5319 5319 5318 5318 5317 5317 5317 5317 5317 5316 5316 5316 5316 5316 5316 5315 5315 5315 5315 5315 5316 5316 5316 5316 5315 5315 5316 5316 5316 5315 5315 5315 5316 5316 5316 5317 5317 5317 5318 5319 5319 5320 5321 5322 5323 5323 5324 5325 5326 5327 5328 5330 5331 5331
5333 5333 5332 5332 5331 5331 5330 5330 5330 5329 5329 5329 5328 5328 5327 5327 5326 5326 5325 5325 5324 5323 5322 5322 5321 5321 5320 5320 5319 5319 5318 5317 5316 5316 5315 5314 5314 5314 5314 5314 5313 5313 5313 5313 5313 5313 5313 5313 5312 5312 5313 5313 5313 5313 5313 5313 5313 5313 5313 5313 5314 5313 5313 5313 5313 5314 5314 5315 5315 5315 5316 5317 5317 5318 5319 5320 5321 5322 5322 5323 5324 5326 5327 5328 5329 5330
5331 5331 5330 5330 5329 5328 5328 5327 5327 5327 5326 5326 5325 5325 5324 5323 5323 5323 5322 5322 5321 5320 5320 5319 5319 5318 5317 5317 5316 5316 5315 5314 5313 5313 5312 5311 5311 5311 5311 5311 5310 5310 5310 5310 5310 5310 5310 5310 5310 5310 5310 5310 5310 5310 5310 5310 5310 5310 5311 5311 5312 5312 5312 5311 5312 5312 5312 5312 5313 5313 5313 5314 5315 5316 5317 5318 5319 5320 5321 5322 5322 5323 5325 5326 5327 5329
5329 5328 5328 5327 5327 5326 5325 5324 5324 5323 5323 5322 5322 5322 5321 5321 5320 5320 5319 5318 5318 5317 5317 5316 5316 5315 5314 5314 5313 5312 5312 5311 5310 5310 5309 5308 5308 5307 5307 5307 5307 5307 5307 5307 5307 5307 5307 5307 5307 5307 5307 5307 5307 5307 5307 5307 5307 5308 5308 5308 5309 5309 5309 5309 5309 5310 5310 5310 5311 5311 5311 5312 5312 5313 5314 5315 5316 5317 5318 5319 5320 5321 5322 5323 5325 5326
5326 5325 5325 5324 5324 5323 5322 5322 5321 5321 5320 5319 5319 5318 5318 5317 5317 5316 5316 5315 5314 5314 5313 5313 5312 5312 5311 5310 5310 5309 5308 5308 5307 5307 5306 5305 5305 5304 5304 5304 5304 5304 5304 5304 5304 5304 5304 5304 5304 5304 5304 5304 5304 5304 5304 5305 5305 5305 5306 5306 5307 5307 5307 5307 5307 5307 5307 5308 5309 5309 5309 5310 5310 5311 5312 5312 5313 5314 5315 5316 5317 5318 5320 5321 5322 5323
5323 5322 5322 5321 5320 5320 5319 5318 5318 5317 5317 5316 5315 5315 5314 5314 5313 5312 5312 5312 5311 5310 5310 5309 5309 5308 5307 5307 5306 5306 5305 5304 5304 5303 5303 5302 5302 5301 5301 5301 5301 5301 5301 5301 5301 5301 5301 5301 5301 5302 5302 5302 5301 5301 5302 5302 5302 5302 5303 5303 5304 5304 5304 5304 5305 5305 5305 5306 5307 5307 5307 5308 5308 5308 5309 5310 5311 5312 5312 5314 5315 5316 5317 5318 5319 5320
5320 5319 5318 5318 5317 5316 5316 5315 5314 5314 5313 5312 5312 5311 5311 5310 5310 5309 5308 5308 5307 5307 5307 5306 5305 5305 5304 5304 5303 5302 5302 5301 5301 5300 5300 5299 5299 5298 5298 5298 5297 5297 5297 5297 5298 5298 5298 5298 5298 5298 5298 5298 5298 5298 5298 5299 5299 5300 5300 5301 5301 5302 5302 5302 5302 5303 5303 5304 5304 5305 5305 5306 5306 5307 5307 5307 5308 5309 5310 5311 5312 5312 5313 5315 5316 5317
5316 5315 5315 5314 5313 5313 5312 5312 5311 5310 5309 5309 5308 5308 5307 5307 5306 5306 5305 5305 5304 5304 5303 5302 5302 5302 5301 5301 5300 5299 5299 5298 5297 5297 5297 5296 5296 5295 5295 5295 5295 5295 5295 5295 5295 5295 5295 5295 5295 5295 5295 5295 5295 5295 5296 5296 5297 5297 5298 5298 5298 5299 5299 5300 5300 5301 5301 5302 5302 5302 5303 5303 5304 5304 5305 5305 5306 5307 5307 5308 5309 5310 5311 5312 5312 5313
5312 5312 5311 5310 5310 5309 5308 5308 5307 5307 5306 5305 5305 5304 5304 5303 5302 5302 5302 5301 5301 5300 5300 5299 5299 5298 5298 5297 5297 5296 5296 5295 5295 5294 5293 5293 5293 5292 5292 5292 5292 5292 5292 5292 5292 5292 5292 5292 5292 5292 5292 5292 5292 5292 5292 5293 5294 5294 5295 5295 5296 5296 5297 5297 5298 5298 5299 5299 5300 5300 5301 5302 5302 5302 5303 5303 5303 5304 5305 5305 5306 5307 5308 5309 5309 5310